LRIA Weather Reports


time (UTC)temp
F
wind
direction
speed
knots
gust
knots
rain 1hr
in
rain 24hr
in
rain mn
in
humidity
%
barometer
mb
20260507051823 55 110 11.3 0.0 0.00 0.00 0.00 63 1015.0
20260507050323 55 110 11.3 0.0 0.00 0.00 0.00 63 1015.0
20260507044820 54 110 9.6 0.0 0.00 0.00 0.00 67 1015.0
20260507043323 54 110 9.6 0.0 0.00 0.00 0.00 67 1015.0
20260507041823 54 100 7.8 0.0 0.00 0.00 0.00 67 1015.0
20260507040323 54 100 7.8 0.0 0.00 0.00 0.00 67 1015.0
20260507034820 52 90 7.8 0.0 0.00 0.00 0.00 67 1015.0
20260507033322 52 90 7.8 0.0 0.00 0.00 0.00 67 1015.0
20260507031823 50 100 7.0 0.0 0.00 0.00 0.00 71 1015.0
20260507030323 50 100 7.0 0.0 0.00 0.00 0.00 71 1015.0
20260507024823 50 90 7.0 0.0 0.00 0.00 0.00 71 1015.0
20260507023323 50 90 7.0 0.0 0.00 0.00 0.00 71 1015.0
20260507021823 52 90 7.0 0.0 0.00 0.00 0.00 67 1014.0
20260507020323 52 90 7.0 0.0 0.00 0.00 0.00 67 1014.0
20260507014823 55 110 7.8 0.0 0.00 0.00 0.00 55 1014.0
20260507013322 55 110 7.8 0.0 0.00 0.00 0.00 55 1014.0
20260507011823 57 130 7.8 0.0 0.00 0.00 0.00 48 1014.0
20260507010323 57 130 7.8 0.0 0.00 0.00 0.00 48 1014.0
20260507004823 57 140 7.8 0.0 0.00 0.00 0.00 48 1015.0
20260507003323 57 140 7.8 0.0 0.00 0.00 0.00 48 1015.0
20260507001823 57 150 7.0 0.0 0.00 0.00 0.00 48 1015.0
20260507000323 57 150 7.0 0.0 0.00 0.00 0.00 48 1015.0
20260506234823 59 160 7.0 0.0 0.00 0.00 0.00 45 1015.0
20260506233323 59 160 7.0 0.0 0.00 0.00 0.00 45 1015.0
20260506231824 63 160 11.3 0.0 0.00 0.00 0.00 42 1015.0
20260506230323 63 160 11.3 0.0 0.00 0.00 0.00 42 1015.0
20260506224819 61 170 7.8 0.0 0.00 0.00 0.00 48 1014.0
20260506223323 61 170 7.8 0.0 0.00 0.00 0.00 48 1014.0
20260506221823 63 180 7.8 0.0 0.00 0.00 0.00 49 1015.0
20260506220322 63 180 7.8 0.0 0.00 0.00 0.00 49 1015.0
20260506214839 63 180 8.7 0.0 0.00 0.00 0.00 49 1014.0
20260506213323 63 180 8.7 0.0 0.00 0.00 0.00 49 1014.0
20260506211820 64 180 9.6 0.0 0.00 0.00 0.00 46 1014.0
20260506210322 64 180 9.6 0.0 0.00 0.00 0.00 46 1014.0
20260506204824 64 180 11.3 0.0 0.00 0.00 0.00 46 1014.0
20260506203323 64 180 11.3 0.0 0.00 0.00 0.00 46 1014.0
20260506201820 66 170 8.7 0.0 0.00 0.00 0.00 43 1014.0
20260506200323 66 170 8.7 0.0 0.00 0.00 0.00 43 1014.0
20260506194842 66 160 8.7 0.0 0.00 0.00 0.00 43 1014.0
20260506193347 66 160 8.7 0.0 0.00 0.00 0.00 43 1014.0
20260506191824 68 160 8.7 0.0 0.00 0.00 0.00 40 1014.0
20260506190323 68 160 8.7 0.0 0.00 0.00 0.00 40 1014.0
20260506184828 70 180 11.3 0.0 0.00 0.00 0.00 38 1013.0
20260506183323 70 180 11.3 0.0 0.00 0.00 0.00 38 1013.0
20260506181823 72 190 9.6 0.0 0.00 0.00 0.00 36 1013.0
20260506180323 72 190 9.6 0.0 0.00 0.00 0.00 36 1013.0
20260506174823 72 190 8.7 0.0 0.00 0.00 0.00 36 1013.0
20260506173323 72 190 8.7 0.0 0.00 0.00 0.00 36 1013.0
20260506171823 73 180 7.8 0.0 0.00 0.00 0.00 31 1012.0
20260506170323 73 180 7.8 0.0 0.00 0.00 0.00 31 1012.0
20260506164823 75 170 7.8 0.0 0.00 0.00 0.00 31 1012.0
20260506163323 75 170 7.8 0.0 0.00 0.00 0.00 31 1012.0
20260506161823 75 150 12.2 0.0 0.00 0.00 0.00 29 1012.0
20260506160323 75 150 12.2 0.0 0.00 0.00 0.00 29 1012.0
20260506154824 77 160 11.3 0.0 0.00 0.00 0.00 30 1012.0
20260506153323 77 160 11.3 0.0 0.00 0.00 0.00 30 1012.0
20260506151823 79 160 7.8 0.0 0.00 0.00 0.00 30 1012.0
20260506150329 79 160 7.8 0.0 0.00 0.00 0.00 30 1012.0
20260506144823 79 190 7.0 0.0 0.00 0.00 0.00 28 1012.0
20260506143335 79 190 7.0 0.0 0.00 0.00 0.00 28 1012.0
20260506141823 81 7.0 0.0 0.00 0.00 0.00 30 1012.0
20260506140440 81 7.0 0.0 0.00 0.00 0.00 30 1012.0
20260506134848 79 140 9.6 0.0 0.00 0.00 0.00 28 1012.0
20260506133323 79 140 9.6 0.0 0.00 0.00 0.00 28 1012.0
20260506131823 81 170 7.8 0.0 0.00 0.00 0.00 26 1012.0
20260506130332 81 170 7.8 0.0 0.00 0.00 0.00 26 1012.0
20260506124824 81 180 6.1 0.0 0.00 0.00 0.00 26 1013.0
20260506123323 81 180 6.1 0.0 0.00 0.00 0.00 26 1013.0
20260506121823 79 5.2 0.0 0.00 0.00 0.00 28 1013.0
20260506120323 79 5.2 0.0 0.00 0.00 0.00 28 1013.0
20260506114823 79 200 6.1 0.0 0.00 0.00 0.00 26 1013.0
20260506113323 79 200 6.1 0.0 0.00 0.00 0.00 26 1013.0
20260506111823 79 150 7.8 0.0 0.00 0.00 0.00 26 1013.0
20260506110323 79 150 7.8 0.0 0.00 0.00 0.00 26 1013.0
20260506104823 77 140 7.0 0.0 0.00 0.00 0.00 30 1013.0
20260506103323 77 140 7.0 0.0 0.00 0.00 0.00 30 1013.0
20260506101823 77 150 6.1 0.0 0.00 0.00 0.00 32 1014.0
20260506100323 77 150 6.1 0.0 0.00 0.00 0.00 32 1014.0
20260506094823 75 160 7.8 0.0 0.00 0.00 0.00 29 1014.0
20260506093323 75 160 7.8 0.0 0.00 0.00 0.00 29 1014.0
20260506091823 75 180 6.1 0.0 0.00 0.00 0.00 34 1014.0
20260506090323 75 180 6.1 0.0 0.00 0.00 0.00 34 1014.0
20260506084823 73 130 4.3 0.0 0.00 0.00 0.00 36 1014.0
20260506083323 73 130 4.3 0.0 0.00 0.00 0.00 36 1014.0
20260506081820 70 130 4.3 0.0 0.00 0.00 0.00 40 1014.0
20260506080323 70 130 4.3 0.0 0.00 0.00 0.00 40 1014.0
20260506073323 66 120 5.2 0.0 0.00 0.00 0.00 46 1014.0
20260506071823 64 130 5.2 0.0 0.00 0.00 0.00 49 1014.0
20260506070323 64 130 5.2 0.0 0.00 0.00 0.00 49 1014.0
20260506061823 59 120 7.8 0.0 0.00 0.00 0.00 51 1014.0
20260506060325 59 120 7.8 0.0 0.00 0.00 0.00 51 1014.0